Regional Weather Roundup
Issued by NWS

Home | Current Version | Previous Version | Text Only | Print | Product List | Glossary Off
Versions: 1 2 3 4 5 6 7 8 9 10 11 12 13 14 15 16 17 18 19 20 21 22 23 24 25 26 27 28 29 30 31 32 33 34 35 36 37 38 39 40 41 42 43 44 45 46 47 48 49 50

000
ASUS43 KLMK 011510
RWRKY
KENTUCKY REGIONAL WEATHER ROUNDUP
NATIONAL WEATHER SERVICE LOUISVILLE KY
1000 AM EST SUN FEB 01 2015

NOTE "FAIR" INDICATES FEW OR NO CLOUDS BELOW 12,000 FEET
WITH NO SIGNIFICANT WEATHER AND/OR OBSTRUCTIONS TO VISIBILITY.

KYZ001>023-026-027-061>063-070>075-011600-
WESTERN AND SOUTH CENTRAL KENTUCKY

CITY           SKY/WX    TMP DP  RH WIND       PRES   REMARKS
PADUCAH        HVY RAIN  45  42  89 S13G26    29.75F FOG
HENDERSON      CLOUDY    43  34  70 S15G24    29.81F
OWENSBORO      LGT RAIN  43  36  76 S20       29.85F
HOPKINSVILLE   MIX PCPN  43  39  86 S15       29.87F
BOWLING GREEN  LGT RAIN  45  34  65 S15G26    29.95F
GLASGOW        LGT RAIN  43  32  66 S12G17    29.96F
$$

KYZ024-025-028>034-038-045-046-053-011600-
NORTH CENTRAL KENTUCKY

CITY           SKY/WX    TMP DP  RH WIND       PRES   REMARKS
LOUISVILLE/SDF CLOUDY    45  19  35 SE12      29.91F
LOUISVILLE/LOU CLOUDY    45  18  34 SE10G17   29.91F
FORT KNOX      MIX PCPN  45  24  43 SE21G31   29.90S
$$

KYZ035>037-039>044-047>052-055>060-089>105-011600-
NORTHEAST KENTUCKY

CITY           SKY/WX    TMP DP  RH WIND       PRES   REMARKS
LEXINGTON      CLOUDY    41  18  39 SE18G25   29.99F
COVINGTON      CLOUDY    40  23  50 S10       29.97F WCI  33
FRANKFORT      CLOUDY    42  20  41 S10       29.96F
$$

KYZ054-064>069-076>088-106>120-011600-
SOUTHEAST KENTUCKY

CITY           SKY/WX    TMP DP  RH WIND       PRES   REMARKS
JACKSON        CLOUDY    43  17  35 VRB3      30.05F
LONDON         CLOUDY    46  14  27 S7        30.05S
SOMERSET       CLOUDY    43  19  39 S3        30.07R
MIDDLESBORO    CLOUDY    43  15  32 CALM      30.11F
MONTICELLO     CLOUDY    48  23  37 S12       30.07S
$$




USA.gov is the U.S. government's official web portal to all federal, state and local government web resources and services.